#timestamp,LO_Frequency,Hit 
1497884415.7,286047020.4,N
1497884435.6,286047017.9,N
1497884455.4,286047017.8,N
1497884475.2,286047018.4,N
1497884495.1,286047017.7,N
1497884496.0,286047017.7,N
1497884515.8,286047020.0,N
1497884535.7,286047020.0,N
1497884555.6,286047020.0,N
1497884575.4,286047019.7,N
1497884595.3,286047017.7,N
1497884615.1,286047017.8,N
1497884635.8,286047020.0,N
1497884655.7,286047019.9,N
1497884675.5,286047019.8,N
1497884695.4,286047019.9,N
1497884715.2,286047017.9,N
1497884735.0,286047018.1,N
1497884735.9,286047018.1,N
1497884755.8,286047017.3,N
1497884775.6,286047020.2,N
1497884795.4,286047020.1,N
1497884815.3,286047019.9,N
1497884835.1,286047020.1,N
1497884855.9,286047020.2,N
1497884875.7,286047019.5,N
1497884895.5,286047020.3,N
1497884915.4,286047019.6,N
1497884935.2,286047018.0,N
1497884955.1,286047020.2,N
1497884956.0,286047020.2,N
1497884975.8,286047017.5,N
1497884995.6,286047020.0,N
1497885015.5,286047020.1,N
1497885035.3,286047019.8,N
1497885055.1,286047017.7,N
1497885075.3,286047020.0,N
1497885095.1,286047020.1,N
1497885096.0,286047020.1,N
1497885115.8,286047020.4,N
1497885135.7,286047019.1,N
1497885155.5,286047019.5,N
1497885175.3,286047019.1,N
1497885195.2,286047020.2,N
1497885215.0,286047022.0,N
1497885215.9,286047022.0,N
1497885235.8,286047019.8,N
1497885255.6,286047019.8,N
1497885275.4,286047019.0,N
1497885295.3,286047020.0,N
1497885315.1,286047019.8,N
1497885335.8,286047019.3,N
1497885355.7,286047019.6,N
1497885375.5,286047019.6,N
1497885395.4,286047019.5,N
1497885415.2,286047019.1,N
1497885435.0,286047019.3,N
1497885435.9,286047019.3,N
1497885455.8,286047019.2,N
1497885475.6,286047019.6,N
1497885495.5,286047021.9,N
1497885515.3,286047019.9,N
1497885535.1,286047017.5,N
1497885555.9,286047017.8,N
1497885575.7,286047017.9,N
1497885595.0,286047018.8,N
1497885595.9,286047018.8,N
1497885615.8,286047015.9,N
1497885635.6,286047018.5,N
1497885655.4,286047018.0,N
1497885675.3,286047017.6,N
1497885695.1,286047017.3,N
1497885715.9,286047018.2,N
1497885735.7,286047018.4,N
1497885755.5,286047018.0,N
1497885775.4,286047018.6,N
1497885795.2,286047018.4,N
1497885815.0,286047018.0,N
1497885815.9,286047018.0,N
1497885835.8,286047018.6,N
1497885855.6,286047017.9,N
1497885875.5,286047018.1,N
1497885895.3,286047017.9,N
1497885915.1,286047018.7,N
1497885935.9,286047017.6,N
1497885955.7,286047019.0,N
1497885975.5,286047019.7,N
1497885995.4,286047020.0,N
1497886015.2,286047019.1,N
1497886035.1,286047019.8,N
1497886036.0,286047019.8,N
1497886055.8,286047019.0,N
1497886075.6,286047019.2,N
1497886095.5,286047018.9,N
1497886115.3,286047019.4,N
1497886135.2,286047019.4,N
1497886155.9,286047019.4,N
1497886175.7,286047019.2,N
1497886195.6,286047019.5,N
1497886215.5,286047019.1,N
1497886235.3,286047019.2,N
1497886255.1,286047020.3,N
1497886275.9,286047019.7,N
1497886295.7,286047020.2,N
1497886315.6,286047019.5,N
1497886335.4,286047017.4,N
1497886355.2,286047019.4,N
1497886375.1,286047021.5,N
1497886376.0,286047021.5,N
1497886395.8,286047019.2,N
1497886415.6,286047020.2,N
1497886435.5,286047019.1,N
1497886455.3,286047021.4,N
1497886475.2,286047019.5,N
1497886495.9,286047018.9,N
1497886515.7,286047019.5,N
1497886535.6,286047022.0,N
1497886555.4,286047021.5,N
1497886575.3,286047021.5,N
1497886595.1,286047019.0,N
1497886596.0,286047019.0,N
1497886615.8,286047022.0,N
1497886665.7,286047019.2,Y
1497886675.6,286047011.8,N
1497886695.4,286047001.2,N
1497886715.3,286046999.0,N
1497886735.1,286047001.0,N
1497886755.9,286047000.4,N
1497886775.7,286047000.9,N
1497886795.5,286047000.5,N
1497886815.4,286047000.9,N
1497886835.2,286047000.8,N
1497886855.0,286047001.2,N
1497886855.9,286047001.2,N
1497886875.8,286046998.1,N
1497886895.6,286046999.9,N
1497886915.5,286047000.3,N
1497886935.3,286047000.9,N
1497886955.1,286047000.6,N
1497886975.9,286046999.9,N
1497886995.7,286047000.6,N
1497887015.5,286047000.1,N
1497887035.4,286047002.6,N
1497887055.2,286046999.7,N
1497887075.1,286047000.5,N
1497887076.0,286047000.5,N
1497887095.8,286047000.1,N
1497887115.6,286047000.5,N
1497887135.5,286047000.3,N
1497887155.3,286046999.8,N
1497887175.1,286046999.8,N
1497887195.9,286046999.8,N
1497887215.7,286046999.8,N
1497887235.6,286046999.8,N
1497887255.4,286047002.3,N
1497887275.2,286047002.5,N
1497887295.1,286046999.8,N
1497887296.0,286046999.8,N
1497887315.8,286047000.5,N
1497887335.7,286047000.1,N
1497887385.5,286047002.3,Y
1497887395.4,286047000.7,N
1497887415.3,286046998.1,N
1497887435.1,286046999.0,N
1497887455.9,286046997.1,N
1497887475.7,286046996.5,N
1497887495.5,286046999.2,N
1497887515.4,286046998.7,N
1497887535.2,286047001.2,N
1497887555.0,286047000.8,N
1497887556.0,286047000.8,N
1497887575.8,286047000.9,N
1497887595.6,286047000.3,N
1497887615.5,286047000.8,N
1497887635.3,286047001.0,N
1497887655.1,286047000.7,N
1497887675.9,286047000.8,N
1497887695.7,286046998.5,N
1497887715.5,286047000.8,N
1497887735.4,286047000.7,N
1497887755.2,286046999.9,N
1497887775.1,286047001.0,N
1497887776.0,286047001.0,N
1497887795.8,286046998.1,N
1497887815.6,286046998.5,N
1497887835.5,286046999.1,N
1497887855.3,286046998.4,N
1497887875.2,286046998.2,N
1497887895.9,286047000.8,N
1497887915.7,286047000.7,N
1497887935.6,286046998.5,N
1497887955.4,286047000.6,N
1497887975.2,286047000.6,N
1497887995.1,286047001.2,N
1497887996.0,286047001.2,N
